Date,TemperatureHighF,TemperatureAvgF,TemperatureLowF,DewpointHighF,DewpointAvgF,DewpointLowF,HumidityHigh,HumidityAvg,HumidityLow,PressureMaxIn,PressureMinIn,WindSpeedMaxMPH,WindSpeedAvgMPH,GustSpeedMaxMPH,PrecipitationSumIn
2013-1-1,31.4,29.7,28.3,27.0,25.3,24.0,94,83,77,30.68,30.57,9,3,11,0.00
2013-1-2,31.8,30.9,29.9,26.0,24.7,23.0,81,78,74,30.66,30.52,14,4,15,0.00
2013-1-3,31.8,30.1,27.4,26.0,23.7,22.0,93,77,72,30.52,30.40,8,3,15,0.00
2013-1-4,34.7,29.4,27.0,29.0,25.7,24.0,94,86,71,30.48,30.39,8,2,14,0.03
2013-1-5,30.6,29.6,27.7,29.0,27.7,25.0,95,92,86,30.45,30.29,5,2,7,0.00
2013-1-6,39.1,31.7,27.2,34.0,29.8,26.0,96,92,83,30.30,30.12,4,1,5,0.00
2013-1-7,53.5,42.8,32.5,48.0,39.3,32.0,97,88,76,30.15,30.00,11,3,21,0.07
2013-1-8,48.3,43.0,38.9,45.0,41.3,38.0,97,94,77,30.19,29.91,9,2,16,0.09
2013-1-9,43.7,39.0,34.7,42.0,37.4,34.0,98,94,85,29.97,29.71,11,3,16,0.15
2013-1-10,47.2,38.9,34.6,39.0,34.0,30.0,96,83,69,30.07,29.95,10,3,19,0.01
2013-1-11,44.3,34.1,25.7,34.0,29.0,24.0,93,82,65,30.33,30.07,9,3,13,0.00
2013-1-12,42.3,28.4,22.9,30.0,23.4,20.0,92,82,60,30.43,30.32,6,3,9,0.00
2013-1-13,36.6,25.1,19.3,29.0,21.1,16.0,93,85,69,30.54,30.44,8,4,13,0.00
2013-1-14,44.2,32.6,20.8,34.0,27.6,19.0,93,82,61,30.52,30.40,18,6,25,0.00
2013-1-15,48.2,35.4,29.2,40.0,31.9,27.0,94,87,71,30.66,30.51,11,4,16,0.00
2013-1-16,35.9,33.0,31.4,33.0,30.6,28.0,93,90,87,30.63,30.58,10,4,14,0.00
2013-1-17,32.0,30.9,30.1,29.0,27.8,27.0,90,88,85,30.64,30.48,9,3,13,0.00
2013-1-18,44.1,32.7,27.9,34.0,28.0,24.0,94,83,64,30.47,30.32,7,3,11,0.00
2013-1-19,31.9,30.7,27.8,30.0,28.2,26.0,95,90,87,30.54,30.37,11,4,14,0.00
2013-1-20,31.0,29.5,28.5,28.0,26.5,25.0,91,88,85,30.61,30.51,9,-8,13,0.00
2013-1-21,29.9,28.9,28.1,26.0,25.6,25.0,89,87,84,30.51,30.39,7,2,11,0.00
2013-1-22,29.2,28.2,27.4,25.0,24.5,24.0,88,86,83,30.41,30.24,9,3,12,0.00
2013-1-23,32.2,29.0,27.8,28.0,25.6,24.0,94,87,77,30.25,30.06,10,2,13,0.00
2013-1-24,43.5,32.5,25.6,38.0,30.1,24.0,96,90,78,30.29,30.20,7,3,11,0.11
2013-1-25,37.7,35.8,33.7,37.0,34.9,33.0,97,96,95,30.21,29.99,3,0,6,0.14
2013-1-26,43.9,37.9,34.4,43.0,36.7,34.0,97,95,87,30.07,29.97,7,2,11,0.03
2013-1-27,45.4,40.0,36.9,40.0,36.9,35.0,92,88,75,30.11,30.03,8,3,15,0.01
2013-1-28,44.7,41.0,36.0,39.0,37.3,34.0,94,87,80,30.10,30.03,14,4,19,0.42
2013-1-29,50.9,45.7,41.1,43.0,40.6,38.0,89,82,73,30.37,30.09,17,6,25,0.20
2013-1-30,50.5,46.7,43.7,45.0,43.0,40.0,94,87,78,30.39,30.35,12,3,22,0.06
2013-1-31,52.8,47.3,42.5,46.0,43.0,40.0,92,85,72,30.39,30.32,10,4,16,0.00
2013-2-1,59.8,44.1,33.3,47.0,38.8,32.0,96,83,50,30.45,30.32,8,4,10,0.00
2013-2-2,55.0,40.5,31.8,43.0,35.6,30.0,93,83,61,30.48,30.31,9,4,13,0.00
2013-2-3,50.0,40.4,29.4,43.0,36.5,28.0,95,86,74,30.32,30.21,10,4,15,0.00
2013-2-4,52.2,43.9,38.1,42.0,39.1,35.0,92,83,66,30.22,29.97,6,1,14,0.00
2013-2-5,53.1,42.7,35.8,47.0,40.3,34.0,96,91,77,30.03,29.91,9,2,12,0.25
2013-2-6,48.5,42.8,39.5,45.0,40.6,38.0,96,92,82,30.11,29.91,8,1,11,0.01
2013-2-7,52.3,40.8,29.3,43.0,36.4,28.0,95,85,65,30.15,29.91,8,3,13,0.03
2013-2-8,47.4,36.2,26.3,38.0,31.5,25.0,95,84,67,30.25,30.15,14,4,19,0.00
2013-2-9,49.8,41.2,31.6,38.0,35.1,29.0,93,79,63,30.28,30.17,12,5,21,0.00
2013-2-10,52.4,39.6,29.0,40.0,33.9,28.0,95,81,62,30.35,30.25,13,5,20,0.00
2013-2-11,51.7,43.3,32.9,40.0,36.5,31.0,91,77,60,30.35,30.26,14,5,28,0.00
2013-2-12,54.2,47.8,43.6,45.0,42.7,40.0,93,83,64,30.41,30.34,9,4,25,0.00
2013-2-13,59.1,50.2,42.9,46.0,41.6,36.0,84,73,53,30.47,30.34,12,4,26,0.00
2013-2-14,56.8,45.1,37.2,44.0,39.4,35.0,93,81,62,30.54,30.47,11,4,18,0.00
2013-2-15,59.3,43.3,32.1,44.0,37.6,31.0,95,82,55,30.54,30.28,8,4,13,0.00
2013-2-16,54.7,41.4,31.0,48.0,37.6,30.0,95,86,74,30.28,30.17,11,3,17,0.02
2013-2-17,51.7,44.2,38.7,36.0,33.3,30.0,79,66,51,30.25,30.18,11,4,17,0.00
2013-2-18,48.9,39.9,32.7,36.0,32.6,29.0,88,75,59,29.92,29.80,6,2,8,0.00
2013-2-19,55.8,39.3,28.4,37.0,31.4,26.0,93,76,42,29.99,29.76,8,3,10,0.00
2013-2-20,50.4,37.6,27.8,40.0,33.0,26.0,95,84,64,30.08,29.99,10,4,12,0.01
2013-2-21,46.3,41.7,37.4,39.0,37.2,35.0,95,84,68,30.14,30.08,8,3,17,0.05
2013-2-22,45.3,42.3,38.7,43.0,38.8,31.0,96,88,65,30.13,29.81,13,3,24,0.41
2013-2-23,47.0,41.4,37.8,39.0,35.4,32.0,88,79,67,30.40,30.00,11,4,21,0.04
2013-2-24,53.9,42.0,36.7,39.0,35.2,33.0,88,78,53,30.41,30.09,8,3,11,0.00
2013-2-25,47.3,40.2,36.7,42.0,37.1,34.0,96,88,78,30.34,30.01,14,4,24,0.58
2013-2-26,49.6,41.7,35.0,41.0,36.6,33.0,93,82,69,30.39,30.27,7,3,16,0.00
2013-2-27,54.2,41.9,32.8,43.0,37.9,32.0,96,86,63,30.34,30.27,7,2,12,0.00
2013-2-28,52.2,47.0,43.0,50.0,45.8,41.0,97,96,92,30.41,30.25,6,1,11,0.48
2013-3-1,59.7,51.8,43.2,55.0,49.2,42.0,96,91,72,30.43,30.32,10,3,13,0.08
2013-3-2,54.6,46.9,42.6,50.0,44.1,38.0,96,90,79,30.32,30.10,11,3,18,0.06
2013-3-3,52.7,43.4,31.1,39.0,34.5,29.0,91,72,52,30.28,30.18,12,4,21,0.00
2013-3-4,54.3,38.9,27.6,35.0,27.7,22.0,92,69,32,30.30,30.03,12,5,18,0.00
2013-3-5,41.3,36.6,31.6,38.0,32.7,27.0,93,86,79,30.03,29.78,8,3,9,0.05
2013-3-6,42.2,38.7,35.7,40.0,37.2,35.0,96,94,88,29.95,29.63,7,2,10,0.52
2013-3-7,56.9,42.1,33.5,46.0,37.4,32.0,97,85,50,30.10,29.96,5,2,9,0.02
2013-3-8,61.8,42.0,29.3,42.0,33.8,28.0,95,76,38,30.21,30.04,8,4,9,0.00
2013-3-9,60.2,43.9,28.4,42.0,33.4,27.0,94,70,39,30.48,30.22,11,-424,16,0.00
2013-3-10,54.9,44.6,34.8,44.0,38.4,32.0,90,79,58,30.48,30.38,13,-508,19,0.00
2013-3-11,54.1,48.5,44.1,48.0,45.0,42.0,94,87,74,30.41,30.24,8,-605,13,0.00
2013-3-12,62.3,52.3,46.1,52.0,47.8,44.0,96,85,68,30.23,30.15,12,-563,17,0.00
2013-3-13,65.8,53.5,44.9,50.0,46.6,43.0,91,78,55,30.22,30.11,9,-504,15,0.00
2013-3-14,65.2,52.0,44.0,52.0,44.9,41.0,94,78,50,30.18,30.03,14,-602,19,0.00
2013-3-15,62.3,53.7,47.7,52.0,48.1,45.0,94,82,61,30.22,30.13,7,-562,12,0.01
2013-3-16,53.1,46.9,37.9,47.0,42.8,34.0,93,85,70,30.13,29.93,15,-594,22,0.35
2013-3-17,45.7,40.8,36.8,40.0,35.4,33.0,89,81,70,30.23,30.06,9,-640,18,0.13
2013-3-18,53.5,43.9,34.8,39.0,35.5,32.0,90,73,56,30.23,30.20,13,-557,19,0.00
2013-3-19,47.2,39.6,32.3,39.0,34.2,30.0,94,82,56,30.23,29.79,7,-632,13,0.18
2013-3-20,55.5,42.6,37.8,48.0,38.5,34.0,96,86,63,30.08,29.60,11,-520,27,0.57
2013-3-21,48.6,40.5,37.2,41.0,35.6,32.0,90,82,67,30.25,30.09,10,-497,19,0.10
2013-3-22,51.0,40.9,36.0,37.0,32.8,30.0,85,73,54,30.38,30.23,10,-498,19,0.00
2013-3-23,52.4,38.4,30.5,36.0,31.1,29.0,92,77,40,30.41,30.28,6,-705,8,0.00
2013-3-24,51.9,40.6,29.3,36.0,29.9,24.0,92,69,36,30.35,30.18,10,-578,14,0.00
2013-3-25,60.3,46.1,33.5,42.0,32.9,28.0,82,63,34,30.17,29.96,11,-498,16,0.01
2013-3-26,53.4,45.6,37.2,43.0,39.2,35.0,92,79,59,30.04,29.96,0,-999,0,0.00
2013-3-27,69.0,50.2,40.6,47.0,43.4,39.0,94,80,42,30.01,29.91,5,-785,10,0.00
2013-3-28,64.1,51.8,44.6,51.0,46.1,43.0,95,82,53,30.13,30.00,9,-510,13,0.02
2013-3-29,70.4,55.7,44.8,51.0,45.5,42.0,90,71,41,30.22,30.12,5,-488,10,0.00
2013-3-30,74.4,56.1,41.0,50.0,43.7,38.0,90,67,37,30.26,30.04,9,-492,14,0.00
2013-3-31,77.2,57.5,42.0,49.0,43.1,39.0,88,63,30,30.07,29.88,9,-470,13,0.00
2013-4-1,67.6,56.8,46.7,52.0,47.7,44.0,90,73,53,30.10,29.95,7,-514,17,0.00
2013-4-2,67.2,58.8,52.3,52.0,47.8,45.0,82,68,52,30.16,30.09,12,-520,16,0.00
2013-4-3,67.3,54.1,40.8,50.0,45.8,39.0,93,75,49,30.15,29.93,8,-544,13,0.00
2013-4-4,58.0,53.9,51.8,56.0,50.0,46.0,94,87,73,29.93,29.73,5,-632,10,0.17
2013-4-5,60.8,52.6,48.9,55.0,49.5,47.0,95,89,79,29.93,29.83,7,-596,15,0.12
2013-4-6,53.2,48.0,43.5,50.0,45.7,42.0,96,92,81,30.00,29.83,6,-650,14,0.38
2013-4-7,51.3,44.3,39.6,47.0,41.2,38.0,96,89,75,29.89,29.58,14,-510,32,0.70
2013-4-8,57.9,47.8,42.3,46.0,41.0,37.0,87,78,63,30.26,29.89,10,-561,17,0.00
2013-4-9,61.6,48.1,34.0,46.0,40.9,33.0,95,78,57,30.36,30.22,11,-557,15,0.00
2013-4-10,60.4,51.1,44.0,52.0,43.8,38.0,95,77,60,30.27,30.02,17,-638,27,0.08
2013-4-11,57.1,49.3,45.0,44.0,39.7,37.0,80,70,58,30.27,30.16,15,-578,19,0.00
2013-4-12,56.3,45.8,33.2,44.0,38.4,31.0,93,77,53,30.16,29.78,11,-541,16,0.01
2013-4-13,53.8,45.2,39.3,42.0,36.9,32.0,88,74,52,30.02,29.82,12,-562,20,0.14
2013-4-14,56.1,45.9,41.3,43.0,38.0,35.0,87,75,52,30.04,29.88,9,-281,21,0.01
2013-4-15,53.8,42.7,33.2,46.0,37.5,31.0,92,83,64,30.15,29.92,7,3,10,0.03
2013-4-16,57.2,44.1,33.5,42.0,37.2,32.0,95,79,42,30.41,30.15,7,3,11,0.00
2013-4-17,62.3,46.1,30.2,43.0,35.8,29.0,93,70,44,30.50,30.38,8,3,13,0.00
2013-4-18,61.8,52.4,46.6,47.0,42.2,38.0,89,69,53,30.43,30.27,9,2,14,0.00
2013-4-19,63.0,53.4,49.6,53.0,48.1,46.0,91,83,68,30.27,30.09,13,4,19,0.13
2013-4-20,61.3,53.7,48.8,47.0,43.6,42.0,86,69,54,30.28,30.21,11,3,22,0.00
2013-4-21,59.3,51.1,44.5,46.0,42.6,40.0,84,73,57,30.28,30.17,12,3,19,0.00
2013-4-22,67.4,50.4,35.7,43.0,35.3,26.0,92,62,26,30.48,30.29,13,5,18,0.00
2013-4-23,70.9,50.2,32.4,42.0,34.0,28.0,85,58,24,30.42,30.13,9,4,13,0.00
2013-4-24,76.3,54.6,36.1,40.0,35.4,31.0,82,54,22,30.34,29.98,9,4,12,0.00
2013-4-25,74.8,59.4,42.9,47.0,41.8,37.0,81,56,33,30.09,29.97,13,-619,18,0.00
2013-4-26,80.0,63.0,47.0,51.0,43.9,38.0,85,54,26,30.18,30.09,12,-498,18,0.00
2013-4-27,73.5,59.4,44.8,45.0,41.0,35.0,82,54,28,30.18,30.12,18,-497,21,0.00
2013-4-28,64.4,57.7,52.1,53.0,45.0,39.0,88,64,45,30.20,29.99,17,-508,23,0.02
2013-4-29,61.4,52.5,44.7,47.0,37.6,-99.9,84,60,37,30.13,29.94,11,-341,17,0.07
2013-4-30,57.8,48.2,42.6,39.0,34.1,31.0,72,59,41,30.41,30.14,10,3,15,0.00
2013-5-1,71.5,50.6,31.3,43.0,34.2,28.0,88,59,26,30.57,30.41,10,5,13,0.00
2013-5-2,79.1,58.6,38.8,47.0,38.1,32.0,77,51,22,30.55,30.21,8,3,9,0.00
2013-5-3,83.1,62.5,43.8,50.0,43.5,39.0,86,55,25,30.30,30.09,8,4,11,0.00
2013-5-4,82.3,65.1,46.6,52.0,41.5,33.0,83,48,20,30.17,29.93,11,4,21,0.00
2013-5-5,83.2,66.0,46.7,48.0,41.1,37.0,71,43,24,29.93,29.72,18,6,21,0.00
2013-5-6,81.8,66.5,48.7,56.0,48.4,40.0,76,54,37,29.84,29.66,11,3,16,0.02
2013-5-7,77.3,66.9,56.4,52.0,50.4,48.0,74,57,39,29.91,29.76,17,5,22,0.00
2013-5-8,69.2,62.3,54.8,54.0,51.3,49.0,80,68,54,30.05,29.91,18,8,27,0.00
2013-5-9,77.0,65.9,55.4,57.0,53.6,51.0,84,66,45,30.10,29.97,12,5,19,0.00
2013-5-10,83.8,69.0,52.6,59.0,53.6,49.0,92,62,36,30.14,30.00,11,4,17,0.03
2013-5-11,82.6,71.9,61.0,60.0,55.0,51.0,80,57,38,30.12,29.92,8,2,13,0.00
2013-5-12,73.4,65.5,59.9,60.0,56.3,54.0,86,73,55,30.07,29.99,11,-195,18,0.00
2013-5-13,67.0,59.9,51.9,58.0,51.8,41.0,87,75,59,30.18,29.98,14,-476,21,0.06
2013-5-14,66.5,56.8,44.9,46.0,40.2,33.0,83,57,30,30.20,30.05,7,-488,14,0.00
2013-5-15,59.9,52.3,45.9,50.0,42.7,-99.9,84,73,60,30.09,30.00,8,-393,11,0.00
2013-5-16,69.0,57.6,47.7,53.0,48.7,45.0,89,73,52,30.02,29.85,9,3,16,0.00
2013-5-17,65.5,56.4,50.8,50.0,47.9,43.0,92,75,52,30.06,29.94,8,2,16,0.21
2013-5-18,61.5,55.0,52.0,50.0,47.7,45.0,86,77,64,30.23,30.06,9,2,12,0.01
2013-5-19,64.9,58.3,49.7,51.0,48.4,46.0,90,70,57,30.31,30.23,15,4,22,0.00
2013-5-20,71.8,58.8,42.6,52.0,46.0,40.0,93,66,43,30.30,29.84,8,3,14,0.00
2013-5-21,61.8,51.9,42.5,48.0,43.1,39.0,91,73,52,29.92,29.77,14,3,19,0.16
2013-5-22,47.5,45.4,43.3,44.0,41.9,38.0,94,88,79,29.98,29.89,7,2,14,0.25
2013-5-23,53.0,47.3,42.0,48.0,44.1,40.0,94,89,75,30.04,29.97,5,1,10,0.09
2013-5-24,61.1,51.7,45.9,52.0,46.6,44.0,96,83,62,30.06,29.98,7,2,13,0.13
2013-5-25,68.5,55.7,42.7,52.0,47.0,41.0,93,75,50,30.05,29.91,7,2,13,0.00
2013-5-26,66.7,57.6,50.0,55.0,49.8,47.0,95,77,55,30.00,29.92,16,2,19,0.12
2013-5-27,58.3,52.6,46.6,56.0,50.4,44.0,96,92,75,29.98,29.75,8,1,10,0.37
2013-5-28,64.1,56.7,51.4,56.0,49.8,46.0,91,78,64,29.91,29.76,11,2,14,0.00
2013-5-29,61.9,53.7,49.2,55.0,50.2,47.0,96,88,69,30.01,29.68,10,-40,22,0.76
2013-5-30,63.3,54.2,46.5,49.0,47.0,44.0,93,78,59,30.22,30.01,7,-456,15,0.02
2013-5-31,68.1,57.3,42.4,51.0,46.6,41.0,93,70,47,30.30,30.17,9,-476,16,0.00
2013-6-1,74.5,60.2,45.7,55.0,49.6,44.0,92,70,45,30.22,29.98,8,-477,14,0.00
2013-6-2,71.5,62.0,49.2,53.0,50.1,46.0,92,67,50,30.00,29.94,10,-289,19,0.00
2013-6-3,74.7,61.6,46.3,54.0,50.2,43.0,90,68,42,30.05,29.93,13,4,19,0.00
2013-6-4,82.7,66.5,48.0,56.0,49.7,42.0,91,60,26,30.09,29.94,7,3,10,0.00
2013-6-5,83.6,68.7,52.1,59.0,52.8,47.0,86,60,32,30.03,29.89,9,3,14,0.00
2013-6-6,83.5,71.1,60.3,60.0,57.4,55.0,86,64,39,29.97,29.87,10,3,17,0.00
2013-6-7,79.2,68.2,59.7,55.0,47.7,40.0,70,50,27,30.05,29.95,12,4,17,0.00
2013-6-8,80.1,66.4,54.5,53.0,48.9,43.0,86,57,29,30.08,29.97,15,4,19,0.00
2013-6-9,73.1,63.6,55.0,53.0,49.2,46.0,80,61,38,30.00,29.90,13,4,23,0.00
2013-6-10,72.0,60.7,52.1,50.0,47.4,44.0,81,63,38,29.93,29.79,13,4,19,0.00
2013-6-11,63.8,57.3,53.5,49.0,45.8,44.0,78,66,53,30.10,29.88,9,2,15,0.00
2013-6-12,65.8,57.1,45.8,49.0,46.5,42.0,91,69,49,30.13,30.08,9,3,15,0.00
2013-6-13,66.0,57.6,51.0,52.0,48.8,46.0,87,73,57,30.21,30.12,9,2,14,0.03
2013-6-14,69.8,60.4,51.0,53.0,49.1,45.0,83,67,50,30.22,29.98,11,3,17,0.00
2013-6-15,82.6,65.1,47.8,59.0,50.7,45.0,89,64,29,29.98,29.83,7,2,12,0.05
2013-6-16,77.1,65.7,57.6,57.0,54.2,52.0,86,68,44,30.04,29.93,13,4,23,0.00
2013-6-17,77.9,67.8,59.9,55.0,52.7,48.0,78,60,39,30.04,29.86,10,-198,16,0.00
2013-6-18,73.5,63.4,56.3,52.0,48.8,43.0,79,61,38,29.96,29.85,10,-487,22,0.00
2013-6-19,65.6,59.4,55.4,51.0,48.7,46.0,83,68,56,30.03,29.89,10,-498,17,0.01
2013-6-20,65.7,58.7,54.2,53.0,49.6,48.0,84,72,57,30.09,30.00,8,-524,16,0.03
2013-6-21,68.8,61.5,54.7,52.0,50.6,48.0,84,68,54,30.13,30.06,9,-545,18,0.00
2013-6-22,78.9,64.6,49.1,56.0,51.9,47.0,92,66,40,30.09,29.82,6,-436,9,0.00
2013-6-23,72.6,64.9,60.3,61.0,58.7,55.0,95,81,62,29.83,29.64,8,-562,10,0.09
2013-6-24,67.5,61.1,57.6,60.0,55.1,53.0,96,81,63,29.70,29.62,6,-470,14,0.01
2013-6-25,66.1,59.5,55.5,62.0,56.9,53.0,95,91,79,29.88,29.70,4,-361,8,0.33
2013-6-26,68.6,61.1,55.5,61.0,57.0,54.0,96,87,66,30.06,29.88,5,2,8,0.06
2013-6-27,80.3,67.2,57.6,63.0,59.3,55.0,93,77,53,30.14,30.05,7,2,13,0.00
2013-6-28,91.6,75.6,59.5,67.0,61.4,57.0,91,65,40,30.15,29.94,8,2,12,0.00
2013-6-29,85.9,75.7,66.7,64.0,60.9,58.0,80,62,39,30.01,29.90,11,3,18,0.00
2013-6-30,97.2,78.6,60.7,68.0,61.5,57.0,91,61,27,29.97,29.77,6,2,8,0.00
2013-7-1,87.7,77.6,67.2,68.0,65.2,62.0,87,67,50,29.91,29.83,10,3,23,0.00
2013-7-2,90.6,78.3,68.7,68.0,63.5,59.0,81,62,38,29.98,29.89,10,4,16,0.00
2013-7-3,84.7,72.8,63.2,60.0,54.7,44.0,78,56,31,30.04,29.91,11,4,19,0.00
2013-7-4,74.1,66.6,58.8,55.0,52.0,48.0,76,60,49,30.02,29.90,18,6,23,0.00
2013-7-5,71.0,64.9,58.6,54.0,51.6,49.0,73,63,54,29.96,29.84,15,5,25,0.00
2013-7-6,74.6,65.4,51.8,59.0,55.1,48.0,88,70,55,29.91,29.76,12,4,19,0.00
2013-7-7,76.0,67.9,57.6,61.0,57.7,54.0,90,71,57,29.87,29.76,12,4,23,0.00
2013-7-8,80.0,68.1,59.3,60.0,56.8,54.0,85,69,45,29.99,29.87,13,5,23,0.00
2013-7-9,85.7,72.5,56.0,64.0,59.4,54.0,92,66,44,30.05,29.88,7,3,14,0.00
2013-7-10,84.2,71.9,61.1,61.0,55.8,52.0,80,59,36,29.97,29.82,9,4,18,0.00
2013-7-11,75.3,64.4,56.4,52.0,49.5,47.0,78,60,41,29.99,29.88,12,4,21,0.00
2013-7-12,76.1,64.2,56.0,53.0,50.1,47.0,81,62,43,30.03,29.91,15,4,21,0.00
2013-7-13,81.2,66.4,49.0,55.0,49.6,41.0,87,58,24,30.13,29.96,9,3,15,0.00
2013-7-14,86.9,69.5,50.9,58.0,50.9,46.0,84,55,31,30.08,29.86,10,2,12,0.00
2013-7-15,90.4,72.2,55.4,56.0,49.5,45.0,80,49,21,29.96,29.76,10,3,17,0.00
2013-7-16,85.4,72.0,56.8,64.0,52.6,45.0,69,52,26,29.88,29.75,8,2,10,0.00
2013-7-17,79.8,71.1,62.9,58.0,55.6,48.0,77,59,34,30.09,29.86,12,4,22,0.00
2013-7-18,81.3,70.4,55.1,59.0,56.7,52.0,89,64,42,30.12,29.95,11,4,19,0.00
2013-7-19,80.1,70.4,55.1,62.0,58.3,52.0,89,67,51,30.05,29.87,12,4,20,0.00
2013-7-20,80.8,69.1,58.6,62.0,58.6,55.0,90,71,48,29.95,29.81,15,5,24,0.00
2013-7-21,84.4,70.9,60.0,61.0,57.7,56.0,86,65,39,29.86,29.76,23,6,26,0.00
2013-7-22,85.8,71.7,61.1,61.0,57.4,52.0,87,64,32,29.91,29.83,14,5,26,0.00
2013-7-23,86.8,72.0,56.1,62.0,57.9,53.0,90,64,33,29.98,29.82,7,3,17,0.00
2013-7-24,91.8,76.7,60.2,62.0,58.2,51.0,84,56,25,29.95,29.85,9,3,18,0.00
2013-7-25,89.7,75.9,58.6,61.0,57.8,54.0,85,56,35,29.98,29.91,10,4,17,0.00
2013-7-26,91.1,74.2,55.7,60.0,56.0,50.0,84,56,32,30.05,29.93,13,4,20,0.00
2013-7-27,80.5,69.6,59.5,53.0,50.5,46.0,74,52,34,30.07,29.90,14,6,26,0.00
2013-7-28,76.4,66.2,58.5,56.0,52.8,50.0,81,63,44,29.94,29.86,14,5,21,0.00
2013-7-29,81.2,67.4,54.4,56.0,53.5,48.0,83,63,32,29.94,29.82,13,4,24,0.00
2013-7-30,83.2,71.8,61.2,59.0,56.6,53.0,84,61,37,30.04,29.94,12,4,17,0.00
2013-7-31,77.4,70.0,64.0,62.0,58.4,54.0,79,67,55,30.03,29.89,23,3,24,0.00
2013-8-1,73.9,65.7,62.6,59.0,56.2,54.0,81,72,54,30.04,29.94,13,5,24,0.00
2013-8-2,70.4,65.4,58.9,56.0,53.6,50.0,78,66,58,30.08,30.02,13,4,20,0.00
2013-8-3,83.0,68.8,53.8,61.0,56.8,51.0,90,68,44,30.08,29.91,8,3,13,0.00
2013-8-4,90.8,75.1,57.4,63.0,58.5,54.0,91,60,29,30.01,29.81,7,2,13,0.00
2013-8-5,90.4,76.3,59.7,64.0,60.5,56.0,88,61,35,29.95,29.80,13,4,18,0.00
2013-8-6,91.3,76.0,58.2,63.0,55.7,44.0,89,54,24,29.93,29.80,11,4,18,0.00
2013-8-7,90.1,75.7,57.3,59.0,54.9,50.0,77,50,31,29.94,29.81,13,6,26,0.00
2013-8-8,80.2,72.4,64.9,63.0,59.0,55.0,78,63,52,29.92,29.80,16,8,26,0.00
2013-8-9,80.9,71.1,63.3,65.0,61.5,59.0,92,73,51,29.92,29.71,17,4,23,0.14
2013-8-10,79.4,69.9,61.5,65.0,62.2,60.0,94,78,57,29.95,29.86,13,4,20,0.00
2013-8-11,81.6,71.6,64.7,62.0,59.3,54.0,82,67,43,30.00,29.89,13,5,18,0.01
2013-8-12,81.7,69.4,55.5,61.0,57.5,53.0,91,68,47,30.00,29.90,14,4,18,0.00
2013-8-13,86.5,71.4,55.4,60.0,56.0,52.0,89,62,33,30.05,29.86,13,4,15,0.00
2013-8-14,84.6,71.5,56.5,60.0,54.4,47.0,85,58,32,29.93,29.84,7,4,17,0.00
2013-8-15,84.3,74.6,67.4,64.0,59.9,54.0,73,61,47,29.91,29.85,12,4,18,0.00
2013-8-16,81.2,72.4,65.6,68.0,64.1,62.0,93,76,58,29.97,29.89,7,2,13,0.09
2013-8-17,83.5,73.7,64.7,63.0,58.5,53.0,79,60,42,30.02,29.93,12,5,18,0.00
2013-8-18,86.2,73.4,63.2,61.0,58.5,55.0,85,62,36,30.06,29.95,16,5,18,0.00
2013-8-19,85.2,69.5,62.3,61.0,48.6,-99.9,81,55,38,30.03,29.94,11,4,19,0.00
2013-8-20,84.3,70.6,54.8,59.0,56.0,52.0,90,62,37,30.06,29.89,16,5,20,0.00
2013-8-21,91.0,71.1,53.6,57.0,50.4,45.0,85,54,21,30.02,29.84,8,3,9,0.00
2013-8-22,79.1,69.7,57.4,61.0,54.9,48.0,77,60,49,29.89,29.79,9,3,14,0.02
2013-8-23,75.8,69.6,65.3,63.0,59.6,55.0,90,71,51,29.87,29.80,14,5,19,0.15
2013-8-24,79.4,70.0,63.4,59.0,56.1,52.0,81,63,44,29.85,29.78,11,4,20,0.00
2013-8-25,71.1,63.2,58.1,62.0,56.8,52.0,94,80,62,29.90,29.83,11,2,17,0.14
2013-8-26,78.8,66.0,57.3,63.0,57.1,51.0,95,76,48,29.95,29.86,6,2,14,0.01
2013-8-27,87.8,70.2,53.4,61.0,55.9,51.0,92,64,35,29.95,29.71,7,2,15,0.00
2013-8-28,84.0,74.3,64.7,64.0,60.5,58.0,82,63,48,29.85,29.77,13,4,17,0.00
2013-8-29,81.9,71.1,64.8,69.0,61.8,59.0,93,73,52,30.02,29.81,9,3,19,0.08
2013-8-30,82.9,72.2,61.7,64.0,60.2,54.0,85,68,44,30.11,29.98,10,4,16,0.00
2013-8-31,92.8,72.0,54.6,59.0,54.4,51.0,86,59,26,30.02,29.77,7,3,9,0.00
2013-9-1,84.9,72.2,58.2,61.0,57.1,52.0,84,61,41,29.84,29.70,13,5,19,0.00
2013-9-2,85.2,74.6,65.9,61.0,57.9,54.0,73,57,41,29.85,29.77,12,5,21,0.00
2013-9-3,81.0,72.9,66.3,62.0,58.6,56.0,75,62,48,29.94,29.84,17,6,23,0.00
2013-9-4,76.9,68.7,57.5,61.0,57.9,53.0,86,69,57,29.95,29.89,16,5,27,0.00
2013-9-5,74.8,67.2,59.2,61.0,59.2,56.0,91,76,60,29.99,29.83,20,6,25,0.18
2013-9-6,70.9,63.0,58.6,62.0,58.1,56.0,96,84,65,30.10,29.97,9,3,16,0.37
2013-9-7,82.2,66.0,52.5,61.0,55.9,51.0,95,74,40,30.09,29.92,6,2,8,0.00
2013-9-8,86.0,70.6,55.9,64.0,58.5,54.0,94,69,36,30.07,29.91,7,3,15,0.00
2013-9-9,82.7,69.9,56.1,65.0,60.5,54.0,92,74,50,29.98,29.82,14,4,18,0.00
2013-9-10,95.2,74.3,58.8,64.0,57.7,49.0,94,63,24,29.95,29.80,9,3,12,0.01
2013-9-11,97.9,76.2,59.6,60.0,55.6,51.0,81,54,22,29.96,29.83,8,3,11,0.00
2013-9-12,86.1,72.5,57.3,64.0,59.8,52.0,85,66,47,29.95,29.78,16,5,22,0.00
2013-9-13,82.5,72.7,65.9,64.0,62.5,61.0,84,71,52,29.85,29.71,16,6,23,0.00
2013-9-14,87.9,70.6,58.6,66.0,61.6,57.0,94,75,47,29.81,29.63,7,2,10,0.00
2013-9-15,76.1,68.5,65.2,63.0,60.3,56.0,87,76,59,29.81,29.65,17,5,29,0.00
2013-9-16,74.9,66.6,61.1,58.0,55.4,52.0,79,68,52,29.93,29.81,13,4,17,0.00
2013-9-17,71.0,62.3,55.9,57.0,52.7,49.0,88,72,49,29.92,29.78,17,4,21,0.00
2013-9-18,72.8,62.2,49.9,53.0,49.8,45.0,83,65,45,30.05,29.93,11,4,15,0.00
2013-9-19,82.8,61.2,43.8,51.0,44.8,40.0,87,60,26,30.06,29.79,9,4,11,0.00
2013-9-20,81.1,61.3,46.3,56.0,47.8,41.0,92,64,27,29.79,29.59,11,4,20,0.10
2013-9-21,73.3,60.5,52.8,59.0,54.3,52.0,95,81,55,29.73,29.64,14,4,20,0.00
2013-9-22,61.0,57.4,54.0,55.0,53.1,51.0,94,86,72,29.81,29.68,10,2,13,0.23
2013-9-23,61.3,57.8,54.5,56.0,53.0,52.0,93,84,74,29.96,29.82,10,3,17,0.03
2013-9-24,62.6,54.8,51.7,53.0,49.7,46.0,92,83,60,29.96,29.83,10,3,14,0.01
2013-9-25,63.6,55.6,51.4,50.0,47.6,45.0,87,75,59,29.97,29.81,11,4,19,0.03
2013-9-26,67.1,54.4,40.7,50.0,45.6,39.0,93,74,52,30.12,29.97,13,5,20,0.00
2013-9-27,61.6,53.9,47.3,53.0,49.6,44.0,95,86,67,30.12,29.92,7,2,10,0.22
2013-9-28,60.5,55.2,50.9,59.0,53.9,50.0,97,95,89,29.91,29.46,6,1,21,1.48
2013-9-29,54.5,51.5,49.9,53.0,50.3,49.0,97,95,90,29.68,29.36,9,2,25,1.14
2013-9-30,58.4,51.5,48.1,54.0,49.1,46.0,96,91,85,29.98,29.55,9,3,19,0.57
2013-10-1,56.4,49.6,43.6,52.0,47.8,42.0,96,93,83,30.19,29.97,7,2,10,0.53
2013-10-2,56.9,48.4,43.0,51.0,45.2,42.0,97,89,70,30.19,30.03,11,2,12,0.01
2013-10-3,61.1,50.1,39.1,50.0,43.9,38.0,95,80,59,30.43,30.15,12,4,18,0.00
2013-10-4,69.7,50.2,37.0,51.0,42.6,36.0,95,78,40,30.52,30.37,6,3,10,0.00
2013-10-5,72.6,52.1,38.8,49.0,43.2,37.0,92,75,36,30.42,30.19,7,4,9,0.00
2013-10-6,72.2,52.8,39.8,52.0,44.0,38.0,92,75,40,30.22,29.94,7,3,11,0.00
2013-10-7,59.4,54.1,48.2,55.0,49.0,45.0,93,83,68,30.07,29.93,8,3,21,0.11
2013-10-8,54.9,50.6,42.2,51.0,46.1,40.0,93,84,76,30.07,29.94,12,4,21,0.15
2013-10-9,61.5,48.2,38.6,49.0,42.9,37.0,94,83,56,30.13,29.95,6,2,8,0.00
2013-10-10,64.7,54.4,46.4,49.0,46.1,43.0,92,75,53,30.05,29.91,16,5,22,0.00
2013-10-11,60.7,50.5,43.0,50.0,43.8,40.0,92,79,56,30.13,30.05,12,4,15,0.00
2013-10-12,54.2,49.4,43.1,49.0,45.5,41.0,94,86,77,30.17,30.04,9,3,15,0.00
2013-10-13,65.8,49.1,37.5,50.0,42.2,36.0,94,80,43,30.32,30.18,7,3,9,0.00
2013-10-14,68.7,49.3,37.4,49.0,40.8,36.0,93,76,36,30.42,30.32,8,4,10,0.00
2013-10-15,67.9,48.9,35.7,45.0,39.3,33.0,92,73,34,30.42,30.17,9,4,11,0.00
2013-10-16,68.3,49.3,36.6,45.0,40.0,34.0,92,73,37,30.20,30.11,7,4,9,0.00
2013-10-17,70.8,50.6,37.5,47.0,41.4,35.0,93,74,37,30.29,30.19,8,4,11,0.00
2013-10-18,70.6,50.4,37.7,47.0,40.9,35.0,91,73,36,30.30,30.15,7,3,9,0.00
2013-10-19,67.9,49.5,37.3,48.0,41.8,35.0,92,77,46,30.18,30.03,9,4,13,0.00
2013-10-20,71.1,51.9,39.1,51.0,44.6,38.0,95,79,43,30.20,30.06,7,3,9,0.00
2013-10-21,76.2,55.3,42.1,50.0,45.5,40.0,92,73,37,30.19,30.06,9,4,13,0.00
2013-10-22,73.9,54.6,41.6,51.0,46.0,40.0,93,75,39,30.19,30.02,8,3,11,0.00
2013-10-23,73.0,54.1,40.8,50.0,45.9,39.0,94,77,42,30.13,30.01,10,4,12,0.00
2013-10-24,72.7,54.6,42.9,52.0,46.9,41.0,93,77,47,30.13,30.01,7,3,9,0.00
2013-10-25,66.7,51.2,40.7,53.0,46.2,39.0,94,84,55,30.26,30.10,6,2,8,0.00
2013-10-26,65.5,49.6,39.5,51.0,45.2,38.0,95,86,59,30.30,30.12,7,3,11,0.00
2013-10-27,55.2,49.6,44.1,49.0,45.9,43.0,95,87,71,30.12,29.80,11,4,23,0.06
2013-10-28,58.6,49.3,34.8,45.0,33.1,28.0,92,57,34,29.96,29.85,13,4,22,0.00
2013-10-29,62.2,41.3,30.3,36.0,30.7,27.0,90,70,31,30.08,29.97,7,4,13,0.00
2013-10-30,61.7,45.5,30.0,41.0,33.4,27.0,89,66,40,30.14,30.06,17,5,19,0.00
2013-10-31,58.4,54.4,52.1,50.0,46.6,37.0,86,76,55,30.25,30.11,12,4,17,0.00
2013-11-1,65.6,50.8,38.4,49.0,44.3,36.0,93,80,48,30.29,29.92,9,3,11,0.00
2013-11-2,55.1,48.8,40.5,49.0,44.5,38.0,96,85,67,30.00,29.68,18,4,30,0.95
2013-11-3,52.3,43.9,36.9,45.0,39.6,35.0,94,85,68,30.11,29.98,11,4,19,0.20
2013-11-4,45.3,39.8,32.2,42.0,37.8,31.0,95,92,85,30.19,30.11,8,3,12,0.05
2013-11-5,49.6,44.9,42.2,48.0,43.6,41.0,96,95,91,30.23,30.11,8,1,11,0.10
2013-11-6,50.0,46.7,43.5,48.0,44.9,42.0,96,93,88,30.34,30.21,8,4,14,0.32
2013-11-7,51.7,47.1,43.7,48.0,43.5,41.0,95,87,67,30.21,29.90,30,5,37,0.39
2013-11-8,53.4,48.1,41.0,47.0,44.0,39.0,93,86,73,30.17,30.04,8,3,14,0.09
2013-11-9,49.1,44.1,38.7,44.0,41.1,37.0,94,89,79,30.18,30.11,6,3,9,0.00
2013-11-10,56.2,46.8,42.0,48.0,43.2,40.0,95,87,69,30.24,30.13,7,2,9,0.00
2013-11-11,50.4,47.6,44.3,44.0,43.0,42.0,91,84,75,30.35,30.23,9,3,12,0.00
2013-11-12,55.4,48.1,44.7,50.0,45.7,43.0,95,91,80,30.40,30.23,7,3,9,0.05
2013-11-13,64.1,50.0,39.1,52.0,45.0,37.0,96,84,57,30.45,30.28,9,4,18,0.00
2013-11-14,54.8,45.9,37.6,44.0,40.6,36.0,94,82,68,30.28,30.05,13,5,18,0.00
2013-11-15,50.9,47.1,45.5,44.0,40.4,38.0,92,77,69,30.05,29.43,16,5,27,0.06
2013-11-16,47.8,45.0,41.8,45.0,40.4,37.0,93,84,74,29.65,29.40,17,5,26,0.28
2013-11-17,50.0,47.5,44.3,47.0,44.9,42.0,95,91,86,29.97,29.88,7,3,12,0.24
2013-11-18,52.5,47.6,43.8,48.0,45.5,42.0,96,92,83,29.95,29.70,5,2,10,0.19
2013-11-19,52.1,48.5,41.6,51.0,44.2,30.0,96,85,62,29.96,29.68,8,3,23,0.34
2013-11-20,50.4,36.4,26.8,37.0,27.3,19.0,93,73,35,30.50,29.97,10,6,16,0.00
2013-11-21,46.4,30.3,20.8,28.0,20.2,13.0,89,69,29,30.76,30.51,12,5,13,0.00
2013-11-22,43.6,29.6,20.9,27.0,20.4,17.0,87,70,41,30.83,30.69,12,6,14,0.00
2013-11-23,46.2,31.1,22.7,29.0,22.2,18.0,82,71,43,30.69,30.42,9,5,14,0.00
2013-11-24,44.9,31.1,22.0,30.0,23.9,19.0,89,76,52,30.46,30.33,10,6,13,0.00
2013-11-25,47.5,31.9,22.7,31.0,25.2,20.0,91,78,51,30.52,30.43,9,6,12,0.00
2013-11-26,43.1,31.4,24.0,32.0,26.6,22.0,92,83,64,30.45,30.26,9,5,11,0.00
2013-11-27,45.2,33.1,26.6,34.0,28.2,25.0,92,83,59,30.26,30.16,9,5,12,0.00
2013-11-28,47.8,33.1,25.4,35.0,28.4,23.0,93,84,60,30.29,30.19,10,5,12,0.00
2013-11-29,39.6,32.7,25.1,38.0,30.0,23.0,94,90,81,30.34,30.27,9,3,10,0.03
2013-11-30,53.2,43.5,35.9,45.0,39.6,34.0,95,87,72,30.37,30.21,9,2,16,0.04
2013-12-1,56.1,50.0,42.2,52.0,47.8,41.0,96,92,83,30.21,29.84,14,4,29,2.87
2013-12-2,50.4,41.7,36.8,47.0,37.1,32.0,92,84,75,30.02,29.81,15,5,28,0.40
2013-12-3,42.3,33.1,24.0,36.0,27.0,20.0,93,79,53,30.33,30.03,10,4,15,0.01
2013-12-4,40.5,26.0,19.1,28.0,18.8,15.0,92,76,45,30.41,30.33,8,5,10,0.00
2013-12-5,29.6,20.9,14.8,20.0,15.0,12.0,88,78,63,30.40,30.30,10,4,13,0.00
2013-12-6,22.0,20.4,17.5,18.0,16.1,12.0,89,83,68,30.34,30.19,13,4,18,0.00
2013-12-7,27.5,17.6,6.7,15.0,6.9,3.0,83,64,44,30.53,30.23,10,5,21,0.00
2013-12-8,23.4,10.9,3.6,15.0,6.0,0.0,88,81,63,30.68,30.52,9,5,13,0.00
2013-12-9,35.6,21.6,7.0,30.0,16.2,4.0,88,80,65,30.68,30.45,14,6,22,0.00
2013-12-10,39.4,34.3,27.5,34.0,30.4,25.0,92,86,78,30.48,30.41,12,6,18,0.01
2013-12-11,37.9,29.1,23.8,26.0,23.5,21.0,91,80,62,30.50,30.38,11,4,15,0.00
2013-12-12,33.9,26.8,19.9,29.0,23.1,17.0,92,86,72,30.38,30.20,8,3,10,0.00
2013-12-13,46.8,37.9,31.4,44.0,35.5,29.0,95,91,86,30.46,30.25,10,2,13,0.02
2013-12-14,45.1,39.4,33.2,41.0,37.1,32.0,95,91,85,30.46,30.37,16,4,23,0.00
2013-12-15,53.2,47.1,42.7,46.0,42.7,39.0,89,84,76,30.44,30.36,13,6,25,0.00
2013-12-16,53.6,42.2,32.0,43.0,38.4,31.0,95,87,66,30.47,30.33,12,5,16,0.00
2013-12-17,46.7,35.0,27.5,39.0,32.2,26.0,95,90,74,30.32,30.11,14,4,20,0.01
2013-12-18,50.0,42.0,35.2,40.0,36.7,29.0,92,81,65,30.11,29.98,14,5,19,0.00
2013-12-19,44.2,31.9,26.1,33.0,26.7,24.0,92,82,51,30.34,30.10,9,4,11,0.00
2013-12-20,50.2,40.4,32.6,44.0,35.3,28.0,90,82,71,30.19,29.77,23,6,33,0.07
2013-12-21,52.2,48.8,46.5,44.0,42.5,41.0,87,79,72,30.17,29.78,9,3,32,0.00
2013-12-22,58.0,49.7,46.5,47.0,44.6,42.0,87,83,68,30.32,30.16,13,4,22,0.00
2013-12-23,57.3,49.9,44.2,49.0,44.1,37.0,90,81,68,30.51,30.17,12,5,27,0.13
2013-12-24,49.5,38.3,28.9,40.0,34.3,27.0,95,86,68,30.61,30.51,10,3,12,0.00
2013-12-25,43.1,31.2,25.5,36.0,28.5,24.0,94,90,73,30.57,30.45,8,4,11,0.01
2013-12-26,39.7,30.5,25.5,34.0,28.3,24.0,95,91,78,30.47,30.34,8,3,11,0.01
2013-12-27,43.4,32.8,27.6,40.0,31.1,26.0,95,93,88,30.35,30.21,11,3,16,0.00
2013-12-28,47.1,36.5,29.4,40.0,33.7,28.0,95,90,73,30.54,30.33,14,4,23,0.00
2013-12-29,37.1,32.0,28.8,34.0,30.6,28.0,96,94,88,30.52,30.28,6,2,9,0.00
2013-12-30,38.2,34.3,30.6,35.0,32.2,29.0,96,91,82,30.31,30.21,10,3,15,0.01
2013-12-31,50.6,41.0,31.2,40.0,36.2,30.0,96,84,66,30.36,30.21,12,4,14,0.01
2014-1-1,48.9,37.9,31.2,41.0,34.7,30.0,94,88,74,30.46,30.35,9,4,13,0.00
2014-1-2,51.7,40.1,35.5,44.0,36.1,33.0,93,86,70,30.37,29.94,11,2,25,0.07